Tracking 25734 objects as of 28-May-2022
HD Live streaming from Space Station
objects crossing your sky now

NOAA 17 DEB

Track NOAA 17 DEB now!
10-day predictions


NORAD ID: 48174
Int'l Code: 2002-032Q
Perigee: 725.3 km
Apogee: 803.5 km
Inclination: 98.9 °
Period: 100.0 minutes
Semi major axis: 7135 km
RCS: Unknown
Launch date: June 24, 2002
Source: United States (US)
Launch site: AIR FORCE WESTERN TEST RANGE (AFWTR)

Note: This is SATELLITE DEBRIS
aabbcc
Your satellite tracking list
Your tracking list is empty




NASA's NSSDC Master Catalog

Two Line Element Set (TLE):
1 48174U 02032P   22147.34174432  .00004871  00000-0  15214-2 0  9990
2 48174  98.8627 113.4716 0054785 163.0854 197.2176 14.40379384 62740
Source of the keplerian elements: AFSPC